Back to catalog

STARLINK-11338

AliveCommunicationsVLEO
NORAD 61534·PAYLOAD·🇺🇸 United States

Launched Oct 15, 2024 from Vandenberg Space Force Base

Loading…

Next Passes (next 24 hours)

TLE

FreshSource: CelesTrak SupGP

Epoch: Sep 14, 2026, 15:25 UTC

1 61534C 24184C   26257.64284722 -.00024513  00000+0 -20197-3 0  2570
2 61534  53.1572  24.8232 0001052  89.1579 290.4216 15.69715985    13

Track STARLINK-11338 in real time with AllMySat

Download on the App Store